| time (UTC) | temp C | wind direction | speed KPH | gust KPH | rain 1hr cm | rain 24hr cm | rain mn cm | humidity % | barometer mb |
| 20260508002607 | 8 | 42 | 12.9 | 24.1 | 0.00 | 0.00 | 0.00 | 82 | 1018.0 |
| 20260508001607 | 8 | 42 | 12.9 | 24.1 | 0.00 | 0.00 | 0.00 | 84 | 1018.0 |
| 20260508000607 | 8 | 42 | 12.9 | 24.1 | 0.00 | 0.00 | 0.00 | 84 | 1018.0 |
| 20260507235607 | 8 | 42 | 12.9 | 24.1 | 0.00 | 0.00 | 0.00 | 85 | 1018.0 |
| 20260507234607 | 8 | 42 | 12.9 | 24.1 | 0.00 | 0.00 | 0.00 | 85 | 1018.0 |
| 20260507233607 | 8 | 32 | 11.3 | 20.9 | 0.00 | 0.00 | 0.00 | 85 | 1018.0 |
| 20260507232612 | 8 | 32 | 11.3 | 20.9 | 0.00 | 0.00 | 0.00 | 85 | 1018.0 |
| 20260507231607 | 8 | 32 | 11.3 | 20.9 | 0.00 | 0.00 | 0.00 | 85 | 1018.0 |
| 20260507230607 | 8 | 32 | 11.3 | 20.9 | 0.00 | 0.00 | 0.00 | 85 | 1018.0 |
| 20260507225607 | 8 | 32 | 11.3 | 20.9 | 0.00 | 0.00 | 0.00 | 86 | 1018.0 |
| 20260507224607 | 8 | 32 | 11.3 | 20.9 | 0.00 | 0.00 | 0.00 | 86 | 1018.0 |
| 20260507223607 | 8 | 32 | 11.3 | 20.9 | 0.00 | 0.00 | 0.00 | 86 | 1018.0 |
| 20260507222607 | 8 | 12 | 11.3 | 19.3 | 0.00 | 0.00 | 0.00 | 86 | 1018.0 |
| 20260507221607 | 8 | 12 | 11.3 | 19.3 | 0.00 | 0.00 | 0.00 | 86 | 1017.0 |
| 20260507220607 | 8 | 12 | 11.3 | 19.3 | 0.00 | 0.00 | 0.00 | 86 | 1017.0 |
| 20260507215607 | 8 | 12 | 11.3 | 19.3 | 0.00 | 0.00 | 0.00 | 87 | 1018.0 |
| 20260507214607 | 8 | 12 | 11.3 | 19.3 | 0.00 | 0.00 | 0.00 | 87 | 1017.0 |
| 20260507213607 | 8 | 12 | 11.3 | 19.3 | 0.00 | 0.00 | 0.00 | 87 | 1017.0 |
| 20260507212607 | 8 | 3 | 11.3 | 20.9 | 0.00 | 0.00 | 0.00 | 86 | 1017.0 |
| 20260507211607 | 8 | 3 | 11.3 | 20.9 | 0.00 | 0.00 | 0.00 | 86 | 1017.0 |
| 20260507210607 | 8 | 3 | 11.3 | 20.9 | 0.00 | 0.00 | 0.00 | 86 | 1017.0 |
| 20260507205607 | 8 | 3 | 11.3 | 20.9 | 0.00 | 0.00 | 0.00 | 87 | 1017.0 |
| 20260507204607 | 8 | 3 | 11.3 | 20.9 | 0.00 | 0.00 | 0.00 | 87 | 1017.0 |
| 20260507203607 | 8 | 3 | 11.3 | 20.9 | 0.00 | 0.00 | 0.00 | 87 | 1017.0 |
| 20260507202607 | 8 | 1 | 11.3 | 19.3 | 0.00 | 0.00 | 0.00 | 86 | 1016.0 |
| 20260507201607 | 8 | 1 | 11.3 | 19.3 | 0.00 | 0.00 | 0.00 | 86 | 1016.0 |
| 20260507200607 | 9 | 1 | 11.3 | 19.3 | 0.00 | 0.00 | 0.00 | 86 | 1016.0 |
| 20260507195607 | 9 | 1 | 11.3 | 19.3 | 0.00 | 0.00 | 0.00 | 86 | 1016.0 |
| 20260507194607 | 9 | 1 | 11.3 | 19.3 | 0.00 | 0.00 | 0.00 | 86 | 1016.0 |
| 20260507193607 | 9 | 1 | 11.3 | 19.3 | 0.00 | 0.00 | 0.00 | 85 | 1016.0 |
| 20260507192607 | 9 | 354 | 11.3 | 19.3 | 0.00 | 0.00 | 0.00 | 84 | 1016.0 |
| 20260507191607 | 9 | 354 | 11.3 | 19.3 | 0.00 | 0.00 | 0.00 | 84 | 1016.0 |
| 20260507190607 | 10 | 354 | 11.3 | 19.3 | 0.00 | 0.00 | 0.00 | 84 | 1015.0 |
| 20260507185607 | 10 | 354 | 11.3 | 19.3 | 0.00 | 0.00 | 0.00 | 84 | 1015.0 |
| 20260507184607 | 10 | 346 | 12.9 | 20.9 | 0.00 | 0.00 | 0.00 | 84 | 1015.0 |
| 20260507183607 | 10 | 346 | 12.9 | 20.9 | 0.00 | 0.00 | 0.00 | 84 | 1015.0 |
| 20260507182607 | 10 | 349 | 11.3 | 19.3 | 0.00 | 0.00 | 0.00 | 83 | 1015.0 |
| 20260507181608 | 10 | 349 | 11.3 | 19.3 | 0.00 | 0.00 | 0.00 | 83 | 1015.0 |
| 20260507180608 | 10 | 349 | 11.3 | 19.3 | 0.00 | 0.00 | 0.00 | 83 | 1015.0 |
| 20260507175608 | 10 | 349 | 11.3 | 19.3 | 0.00 | 0.00 | 0.00 | 82 | 1015.0 |
| 20260507174608 | 10 | 349 | 11.3 | 19.3 | 0.00 | 0.00 | 0.00 | 82 | 1015.0 |
| 20260507173608 | 10 | 349 | 11.3 | 19.3 | 0.00 | 0.00 | 0.00 | 82 | 1015.0 |
| 20260507172608 | 10 | 14 | 12.9 | 19.3 | 0.00 | 0.00 | 0.00 | 83 | 1014.0 |
| 20260507171608 | 10 | 14 | 12.9 | 19.3 | 0.00 | 0.00 | 0.00 | 82 | 1014.0 |
| 20260507170608 | 10 | 14 | 12.9 | 19.3 | 0.00 | 0.00 | 0.00 | 80 | 1014.0 |
| 20260507165608 | 10 | 14 | 12.9 | 19.3 | 0.00 | 0.00 | 0.00 | 80 | 1014.0 |
| 20260507164608 | 10 | 14 | 12.9 | 19.3 | 0.00 | 0.00 | 0.00 | 80 | 1014.0 |
| 20260507163608 | 10 | 14 | 12.9 | 19.3 | 0.00 | 0.00 | 0.00 | 80 | 1014.0 |
| 20260507162608 | 10 | 28 | 16.1 | 16.1 | 0.00 | 0.00 | 0.00 | 82 | 1014.0 |
| 20260507161608 | 10 | 28 | 16.1 | 16.1 | 0.00 | 0.00 | 0.00 | 82 | 1014.0 |
| 20260507160608 | 10 | 28 | 16.1 | 16.1 | 0.00 | 0.00 | 0.00 | 78 | 1014.0 |
| 20260507155608 | 10 | 28 | 16.1 | 16.1 | 0.00 | 0.00 | 0.00 | 78 | 1014.0 |
| 20260507154608 | 10 | 28 | 16.1 | 16.1 | 0.00 | 0.00 | 0.00 | 78 | 1014.0 |
| 20260507153608 | 11 | 33 | 16.1 | 17.7 | 0.00 | 0.00 | 0.00 | 81 | 1014.0 |
| 20260507152608 | 11 | 33 | 16.1 | 17.7 | 0.00 | 0.00 | 0.00 | 81 | 1014.0 |
| 20260507151608 | 11 | 33 | 16.1 | 17.7 | 0.00 | 0.00 | 0.00 | 81 | 1014.0 |
| 20260507150608 | 11 | 33 | 16.1 | 17.7 | 0.00 | 0.00 | 0.00 | 81 | 1014.0 |
| 20260507145608 | 11 | 33 | 16.1 | 17.7 | 0.00 | 0.00 | 0.00 | 79 | 1014.0 |
| 20260507144608 | 11 | 33 | 16.1 | 17.7 | 0.00 | 0.00 | 0.00 | 79 | 1014.0 |
| 20260507143608 | 11 | 33 | 16.1 | 17.7 | 0.00 | 0.00 | 0.00 | 79 | 1014.0 |
| 20260507142608 | 11 | 33 | 16.1 | 24.1 | 0.00 | 0.00 | 0.00 | 82 | 1014.0 |
| 20260507141608 | 11 | 33 | 16.1 | 24.1 | 0.00 | 0.00 | 0.00 | 83 | 1014.0 |
| 20260507140608 | 11 | 33 | 16.1 | 24.1 | 0.00 | 0.00 | 0.00 | 83 | 1014.0 |
| 20260507135608 | 11 | 33 | 16.1 | 24.1 | 0.00 | 0.00 | 0.00 | 83 | 1014.0 |
| 20260507134608 | 11 | 33 | 16.1 | 24.1 | 0.00 | 0.00 | 0.00 | 83 | 1014.0 |
| 20260507133608 | 11 | 17 | 11.3 | 12.9 | 0.00 | 0.00 | 0.00 | 84 | 1014.0 |
| 20260507132608 | 11 | 17 | 11.3 | 12.9 | 0.00 | 0.00 | 0.00 | 84 | 1014.0 |
| 20260507131607 | 11 | 17 | 11.3 | 12.9 | 0.00 | 0.00 | 0.00 | 84 | 1014.0 |
| 20260507130607 | 12 | 17 | 11.3 | 12.9 | 0.00 | 0.00 | 0.00 | 82 | 1014.0 |
| 20260507125607 | 12 | 17 | 11.3 | 12.9 | 0.00 | 0.00 | 0.00 | 82 | 1014.0 |
| 20260507124607 | 11 | 7 | 14.5 | 14.5 | 0.00 | 0.00 | 0.00 | 83 | 1014.0 |
| 20260507123607 | 11 | 7 | 14.5 | 14.5 | 0.00 | 0.00 | 0.00 | 83 | 1014.0 |
| 20260507122607 | 11 | 35 | 16.1 | 27.4 | 0.00 | 0.00 | 0.00 | 86 | 1013.0 |
| 20260507121607 | 11 | 35 | 16.1 | 27.4 | 0.00 | 0.00 | 0.00 | 86 | 1013.0 |
| 20260507120607 | 11 | 35 | 16.1 | 27.4 | 0.00 | 0.00 | 0.00 | 86 | 1013.0 |
| 20260507115607 | 11 | 35 | 16.1 | 27.4 | 0.00 | 0.00 | 0.00 | 86 | 1013.0 |
| 20260507114607 | 11 | 35 | 16.1 | 27.4 | 0.00 | 0.00 | 0.00 | 86 | 1013.0 |
| 20260507113607 | 11 | 35 | 16.1 | 27.4 | 0.00 | 0.00 | 0.00 | 86 | 1013.0 |
| 20260507112607 | 11 | 20 | 16.1 | 17.7 | 0.00 | 0.00 | 0.00 | 85 | 1013.0 |
| 20260507111607 | 11 | 20 | 16.1 | 17.7 | 0.00 | 0.00 | 0.00 | 85 | 1013.0 |
| 20260507110607 | 11 | 20 | 16.1 | 17.7 | 0.00 | 0.00 | 0.00 | 81 | 1013.0 |
| 20260507105607 | 11 | 20 | 16.1 | 17.7 | 0.00 | 0.00 | 0.00 | 81 | 1013.0 |
| 20260507104607 | 11 | 20 | 16.1 | 17.7 | 0.00 | 0.00 | 0.00 | 81 | 1013.0 |
| 20260507103607 | 11 | 20 | 16.1 | 17.7 | 0.00 | 0.00 | 0.00 | 81 | 1013.0 |
| 20260507102607 | 11 | 25 | 14.5 | 16.1 | 0.00 | 0.00 | 0.00 | 86 | 1013.0 |
| 20260507101607 | 11 | 25 | 14.5 | 16.1 | 0.00 | 0.00 | 0.00 | 81 | 1012.0 |
| 20260507100607 | 11 | 25 | 14.5 | 16.1 | 0.00 | 0.00 | 0.00 | 81 | 1012.0 |
| 20260507095607 | 11 | 25 | 14.5 | 16.1 | 0.00 | 0.00 | 0.00 | 81 | 1012.0 |
| 20260507094607 | 11 | 25 | 14.5 | 16.1 | 0.00 | 0.00 | 0.00 | 81 | 1012.0 |
| 20260507093607 | 11 | 25 | 14.5 | 16.1 | 0.00 | 0.00 | 0.00 | 81 | 1012.0 |
| 20260507092607 | 10 | 23 | 16.1 | 16.1 | 0.00 | 0.00 | 0.00 | 85 | 1012.0 |
| 20260507091607 | 10 | 23 | 16.1 | 16.1 | 0.00 | 0.00 | 0.00 | 85 | 1012.0 |
| 20260507090607 | 10 | 23 | 16.1 | 16.1 | 0.00 | 0.00 | 0.00 | 85 | 1012.0 |
| 20260507085607 | 10 | 23 | 16.1 | 16.1 | 0.00 | 0.00 | 0.00 | 81 | 1012.0 |
| 20260507084607 | 10 | 23 | 16.1 | 16.1 | 0.00 | 0.00 | 0.00 | 81 | 1012.0 |
| 20260507083607 | 10 | 23 | 16.1 | 16.1 | 0.00 | 0.00 | 0.00 | 81 | 1012.0 |
| 20260507082607 | 10 | 23 | 16.1 | 17.7 | 0.00 | 0.00 | 0.00 | 84 | 1011.0 |
| 20260507081607 | 10 | 23 | 16.1 | 17.7 | 0.00 | 0.00 | 0.00 | 85 | 1011.0 |
| 20260507080607 | 10 | 23 | 16.1 | 17.7 | 0.00 | 0.00 | 0.00 | 82 | 1011.0 |
| 20260507075607 | 10 | 23 | 16.1 | 17.7 | 0.00 | 0.00 | 0.00 | 82 | 1011.0 |
| 20260507074607 | 10 | 23 | 16.1 | 17.7 | 0.00 | 0.00 | 0.00 | 82 | 1011.0 |
| 20260507073607 | 10 | 23 | 16.1 | 17.7 | 0.00 | 0.00 | 0.00 | 82 | 1011.0 |
| 20260507072607 | 9 | 19 | 16.1 | 17.7 | 0.00 | 0.00 | 0.00 | 87 | 1011.0 |
| 20260507071607 | 9 | 19 | 16.1 | 17.7 | 0.00 | 0.00 | 0.00 | 88 | 1010.0 |
| 20260507070607 | 9 | 19 | 16.1 | 17.7 | 0.00 | 0.00 | 0.00 | 85 | 1011.0 |
| 20260507065607 | 9 | 19 | 16.1 | 17.7 | 0.00 | 0.00 | 0.00 | 85 | 1011.0 |
| 20260507064607 | 9 | 8 | 16.1 | 17.7 | 0.00 | 0.00 | 0.00 | 85 | 1011.0 |
| 20260507063607 | 9 | 8 | 16.1 | 17.7 | 0.00 | 0.00 | 0.00 | 85 | 1011.0 |
| 20260507062607 | 9 | 15 | 16.1 | 17.7 | 0.00 | 0.00 | 0.00 | 89 | 1010.0 |
| 20260507061607 | 9 | 15 | 16.1 | 17.7 | 0.00 | 0.00 | 0.00 | 89 | 1010.0 |
| 20260507060607 | 9 | 15 | 16.1 | 17.7 | 0.00 | 0.00 | 0.00 | 89 | 1010.0 |
| 20260507055607 | 8 | 15 | 16.1 | 17.7 | 0.00 | 0.00 | 0.00 | 87 | 1011.0 |
| 20260507054607 | 8 | 15 | 16.1 | 17.7 | 0.00 | 0.00 | 0.00 | 87 | 1011.0 |
| 20260507053607 | 8 | 15 | 16.1 | 17.7 | 0.00 | 0.00 | 0.00 | 87 | 1011.0 |
| 20260507052607 | 8 | 19 | 16.1 | 19.3 | 0.00 | 0.00 | 0.00 | 90 | 1010.0 |
| 20260507051607 | 8 | 19 | 16.1 | 19.3 | 0.00 | 0.00 | 0.00 | 90 | 1010.0 |
| 20260507050607 | 8 | 19 | 16.1 | 19.3 | 0.00 | 0.00 | 0.00 | 90 | 1010.0 |
| 20260507045607 | 8 | 19 | 16.1 | 19.3 | 0.00 | 0.00 | 0.00 | 88 | 1010.0 |
| 20260507044607 | 8 | 19 | 16.1 | 19.3 | 0.00 | 0.00 | 0.00 | 88 | 1010.0 |
| 20260507043607 | 8 | 19 | 16.1 | 19.3 | 0.00 | 0.00 | 0.00 | 88 | 1010.0 |
| 20260507042607 | 8 | 8 | 16.1 | 24.1 | 0.00 | 0.00 | 0.00 | 91 | 1009.0 |
| 20260507041607 | 8 | 8 | 16.1 | 24.1 | 0.00 | 0.00 | 0.00 | 91 | 1009.0 |
| 20260507040607 | 8 | 8 | 16.1 | 24.1 | 0.00 | 0.00 | 0.00 | 91 | 1009.0 |
| 20260507035607 | 8 | 8 | 16.1 | 24.1 | 0.00 | 0.00 | 0.00 | 89 | 1009.0 |
| 20260507034607 | 8 | 8 | 16.1 | 24.1 | 0.00 | 0.00 | 0.00 | 89 | 1009.0 |
| 20260507033607 | 8 | 8 | 16.1 | 24.1 | 0.00 | 0.00 | 0.00 | 89 | 1009.0 |
| 20260507032607 | 8 | 10 | 14.5 | 25.7 | 0.00 | 0.00 | 0.00 | 90 | 1009.0 |
| 20260507031607 | 8 | 10 | 14.5 | 25.7 | 0.00 | 0.00 | 0.00 | 91 | 1009.0 |
| 20260507030607 | 8 | 10 | 14.5 | 25.7 | 0.00 | 0.00 | 0.00 | 91 | 1009.0 |
| 20260507025607 | 8 | 10 | 14.5 | 25.7 | 0.00 | 0.00 | 0.00 | 91 | 1009.0 |
| 20260507024607 | 8 | 10 | 14.5 | 25.7 | 0.00 | 0.00 | 0.00 | 91 | 1009.0 |
| 20260507023607 | 8 | 10 | 14.5 | 25.7 | 0.00 | 0.00 | 0.00 | 91 | 1009.0 |
| 20260507022607 | 8 | 13 | 14.5 | 27.4 | 0.00 | 0.00 | 0.00 | 91 | 1009.0 |
| 20260507021607 | 8 | 13 | 14.5 | 27.4 | 0.00 | 0.00 | 0.00 | 90 | 1008.0 |
| 20260507020607 | 8 | 13 | 14.5 | 27.4 | 0.00 | 0.00 | 0.00 | 90 | 1008.0 |
| 20260507015607 | 8 | 13 | 14.5 | 27.4 | 0.00 | 0.00 | 0.00 | 91 | 1009.0 |
| 20260507014607 | 8 | 13 | 14.5 | 27.4 | 0.00 | 0.00 | 0.00 | 91 | 1009.0 |
| 20260507013607 | 8 | 13 | 14.5 | 27.4 | 0.00 | 0.00 | 0.00 | 91 | 1009.0 |
| 20260507012607 | 8 | 13 | 12.9 | 25.7 | 0.00 | 0.00 | 0.00 | 90 | 1008.0 |
| 20260507011607 | 9 | 13 | 12.9 | 25.7 | 0.00 | 0.00 | 0.00 | 93 | 1009.0 |
| 20260507010607 | 9 | 13 | 12.9 | 25.7 | 0.00 | 0.00 | 0.00 | 93 | 1009.0 |
| 20260507005607 | 9 | 20 | 11.3 | 25.7 | 0.00 | 0.00 | 0.00 | 93 | 1009.0 |
| 20260507004607 | 9 | 20 | 11.3 | 25.7 | 0.00 | 0.00 | 0.00 | 93 | 1010.0 |
| 20260507003607 | 9 | 20 | 11.3 | 25.7 | 0.00 | 0.00 | 0.00 | 93 | 1010.0 |